User: anonymous   Login
Location: Unspecified
(40.7945°N, 111.1337°W)
Time: 18:40:25
(UTC-06:00)
Language:

Hubble Space Telescope - Orbit

View from above orbital plane
View from above orbital plane
View from above satellite
View from above satellite

Ground track
Ground track

The orbit data is extracted from the following two-line orbital elements,

1 20580U 90037B   19115.53115955 +.00000463 +00000-0 +17313-4 0  9997
2 20580 028.4687 210.0685 0002452 262.4561 214.5799 15.09212700392618
Epoch (UTC): 25 April 2019 12:44:52
Eccentricity: 0.0002452
inclination: 28.4687°
perigee height: 537 km
apogee height: 540 km
right ascension of ascending node: 210.0685°
argument of perigee: 262.4561°
revolutions per day: 15.09212700
mean anomaly at epoch: 214.5799°
orbit number at epoch: 39261

The dashed part of the orbit path shows where the satellite is in the earth's shadow,  

DLR